Regional Weather Roundup
Issued by NWS Burlington, VT

Home | Current Version | Previous Version | Text Only | Print | Product List | Glossary On
Versions: 1 2 3 4 5 6 7 8 9 10 11 12 13 14 15 16 17 18 19 20 21 22 23 24 25 26 27 28 29 30 31 32 33 34 35 36 37 38 39 40 41 42 43 44 45 46 47 48 49 50
169
ASUS41 KBTV 281810
RWRBTV
VERMONT REGIONAL WEATHER ROUNDUP
NATIONAL WEATHER SERVICE BURLINGTON VT
200 PM EDT WED JUN 28 2017

NOTE: "FAIR" INDICATES FEW OR NO CLOUDS BELOW 12,000 FEET WITH NO
SIGNIFICANT WEATHER AND/OR OBSTRUCTIONS TO VISIBILITY.

* THESE REPORTS ARE NOT UNDER NWS QUALITY CONTROL AND/OR DO NOT
  REPORT WEATHER SUCH AS PRECIPITATION AND FOG.

VTZ001>019-281900-
_____VERMONT_____


CITY           SKY/WX    TMP DP  RH WIND       PRES   REMARKS
BURLINGTON     CLOUDY    69  57  65 NW3       30.02R
6HR MIN TEMP:  57; 6HR MAX TEMP:  72; 6HR PCP:  0.03;

MONTPELIER     PTSUNNY   62  56  80 CALM      30.07R
6HR MIN TEMP:  52; 6HR MAX TEMP:  67; 6HR PCP:  0.07;

MORRISVILLE    LGT RAIN  60  53  77 VRB6      30.03R
6HR MIN TEMP:  55; 6HR MAX TEMP:  68; 6HR PCP:  0.02;

ST. JOHNSBURY*   N/A     67  50  54 MISG      29.99S
6HR MIN TEMP:  53; 6HR MAX TEMP:  69; 6HR PCP:  0.02;

LYNDONVILLE*   FAIR      65  48  52 SW10      30.03R
6HR MIN TEMP:  52; 6HR MAX TEMP:  68;

MIDDLEBURY*    CLOUDY    69  51  53 N3        30.03S
6HR MIN TEMP:  57; 6HR MAX TEMP:  69;

RUTLAND*       CLOUDY    68  50  52 W12       30.05
6HR MIN TEMP:  58; 6HR MAX TEMP:  69;

SPRINGFIELD    PTSUNNY   72  44  36 W13       30.04S
6HR MIN TEMP:  51; 6HR MAX TEMP:  73;

HIGHGATE*      FAIR      71  53  52 W7        30.00S
6HR MIN TEMP:  57; 6HR MAX TEMP:  71;

NEWPORT*       FAIR      67  49  53 SW14G21   30.00S
6HR MIN TEMP:  55; 6HR MAX TEMP:  67;

BENNINGTON     CLOUDY    69  50  50 W13       30.09R
6HR MIN TEMP:  58; 6HR MAX TEMP:  70;

SUTTON*          N/A     64 N/A N/A MISG        N/A

_____LAKE CHAMPLAIN_____


CITY           SKY/WX    TMP DP  RH WIND       PRES   REMARKS
BURTON ISLAND*   N/A     66  54  63 S2          N/A
COLCHESTER RF*   N/A     66  54  63 NW2         N/A
DIAMOND ISL*     N/A     70  48  46 W6G12       N/A

$$

NYZ007-026>031-035-052-083-087-281900-
_____NORTHERN NEW YORK_____


CITY           SKY/WX    TMP DP  RH WIND       PRES   REMARKS
PLATTSBURGH    PTSUNNY   72  50  45 NW8       30.00F
6HR MIN TEMP:  59; 6HR MAX TEMP:  73; 6HR PCP:  0.01;

SARANAC LAKE   CLOUDY    64  49  57 W9G20     30.06R
6HR MIN TEMP:  55; 6HR MAX TEMP:  64;

MASSENA        MOSUNNY   72  56  57 SW15G21   30.03F
6HR MIN TEMP:  59; 6HR MAX TEMP:  73;

OGDENSBURG*    FAIR      74  56  53 SW12G20   30.03F
6HR MIN TEMP:  58; 6HR MAX TEMP:  75;

POTSDAM*       PTSUNNY   72  57  60 W13       30.04F
WATERTOWN      SUNNY     71  52  50 W14       30.07F
6HR MIN TEMP:  61; 6HR MAX TEMP:  71;

FT DRUM        SUNNY     71  49  45 W14G20    30.07F
6HR MIN TEMP:  61; 6HR MAX TEMP:  71;

ALBANY         MOSUNNY   73  50  44 W12       30.09S
6HR MIN TEMP:  62; 6HR MAX TEMP:  74;

GLENS FALLS    CLOUDY    71  48  43 VRB6      30.04S
6HR MIN TEMP:  58; 6HR MAX TEMP:  72;


$$
NHZ002-005-011-281900-
_____NEW HAMPSHIRE_____


CITY           SKY/WX    TMP DP  RH WIND       PRES   REMARKS
LEBANON        LGT RAIN  70  49  47 NW9       30.02S
6HR MIN TEMP:  55; 6HR MAX TEMP:  74; 6HR PCP: TRACE;

KEENE          PTSUNNY   71  47  42 NW6       30.05R
6HR MIN TEMP:  51; 6HR MAX TEMP:  72;

MT WASHINGTON  SHOWER    39  39 100 W37G44      N/A  VSB 0   WCI  26
6HR MIN TEMP:  35; 6HR MAX TEMP:  40; 6HR PCP:  0.04;

PLYMOUTH       PTSUNNY   70  47  44 W8        30.01S
6HR MIN TEMP:  55; 6HR MAX TEMP:  71;

WHITEFIELD     CLOUDY    67  48  50 NW15G21   30.00S
6HR MIN TEMP:  55; 6HR MAX TEMP:  69; 6HR PCP:  0.01;


$$

_____REGIONAL QUEBEC LOCATIONS_____


CITY           SKY/WX    TMP DP  RH WIND       PRES   REMARKS
MONTREAL       MOSUNNY   72  52  49 W22       29.97F
SHERBROOKE     PTSUNNY   66  54  63 W10       29.96S THUNDER

_____REGIONAL ONTARIO LOCATIONS_____


CITY           SKY/WX    TMP DP  RH WIND       PRES   REMARKS
OTTAWA         PTSUNNY   73  55  53 W10G18    30.00F

______KEY______
VSB  - VISIBILITY IN MILES
WCI  - WIND CHILL INDEX
HX   - HEAT INDEX
$$
NNNN




USA.gov is the U.S. government's official web portal to all federal, state and local government web resources and services.